CAPE
0 0 0 0 0 0 0 0 0 0 0 0 0 0 0 0 0 0 0 0 0 0 0 0 0 0 0 0 0 0 0 0 0 0 0 33 497 323 490 747 971 761 968 1206 818
0 0 0 0 0 0 0 0 0 0 0 0 0 0 0 0 0 0 0 0 0 0 0 0 0 0 0 0 0 0 0 0 0 0 326 478 461 285 685 816 858 998 1099 983 932
0 0 0 0 0 0 0 0 0 0 0 0 0 0 0 0 0 0 0 0 0 0 0 0 0 0 0 0 0 0 0 0 23 0 276 464 602 657 611 659 707 1060 913 816 638
0 0 0 0 0 0 0 0 0 0 0 0 0 0 0 0 0 0 0 2 12 0 0 0 0 0 0 0 0 0 141 140 126 69 241 402 536 544 806 651 617 507 378 241 191
0 0 0 0 0 0 0 0 0 0 0 0 0 0 0 0 0 0 0 0 0 0 0 0 0 0 0 0 0 0 129 251 261 282 305 356 399 419 428 404 393 303 180 88 31
0 0 0 0 0 0 0 0 0 0 0 0 0 0 0 0 0 0 0 0 0 0 0 0 0 0 0 0 0 195 339 365 304 231 268 301 239 263 248 227 257 234 122 40 11
0 0 0 0 0 0 0 0 0 0 0 0 0 0 0 0 0 0 0 0 0 0 0 0 0 0 0 0 51 135 226 250 329 92 340 348 278 230 141 106 173 178 108 17 16
0 0 0 0 0 0 0 0 0 0 0 0 0 0 0 0 0 0 0 0 0 0 0 0 0 0 0 0 0 0 0 162 341 428 310 368 285 107 79 148 244 252 212 48 15
0 0 0 0 0 0 0 0 0 0 0 0 0 0 0 0 0 0 0 0 0 0 0 0 0 0 0 0 0 111 170 303 304 516 454 458 248 78 29 53 64 73 78 50 27
0 0 0 0 0 0 0 0 0 0 0 0 0 0 0 0 0 0 0 0 0 0 0 0 0 0 0 0 0 5 349 332 404 270 326 219 243 63 17 6 9 18 19 22 10
0 0 0 0 0 0 0 0 0 0 0 0 0 0 0 0 0 0 0 0 0 0 0 0 0 0 0 0 0 204 343 316 267 206 186 138 144 117 6 3 2 5 6 10 9
0 0 0 0 0 0 0 0 0 0 0 0 0 0 0 0 0 0 0 0 0 0 0 0 0 0 0 72 221 295 325 253 217 159 161 69 69 59 29 8 11 8 13 13 13
0 0 0 0 0 0 0 0 0 0 0 0 0 0 0 0 0 0 0 0 0 0 0 0 0 0 0 0 0 2 25 111 207 101 138 143 78 92 23 4 17 3 11 14 7
0 0 0 0 0 0 0 0 0 0 0 0 0 0 0 0 0 0 0 0 0 0 0 0 0 0 0 0 0 0 0 63 164 144 108 71 35 105 113 0 11 4 3 4 9
0 0 0 0 0 0 0 0 0 0 0 0 0 0 0 0 0 0 0 0 0 0 0 0 0 0 0 0 0 0 71 184 185 0 116 76 75 113 107 57 66 6 5 3 2
0 0 0 0 0 0 0 0 0 0 0 0 0 0 0 0 0 0 0 0 0 0 0 0 0 0 0 0 0 7 47 0 99 0 1 91 112 245 115 133 153 44 18 2 0
0 0 0 0 0 0 0 0 0 0 0 0 0 0 0 0 0 0 0 0 0 0 0 0 0 0 0 0 0 0 0 0 0 0 0 48 89 272 168 174 160 117 17 0 0
0 0 0 0 0 0 0 0 0 0 0 0 0 0 0 0 0 0 0 0 0 0 0 1 0 0 0 0 0 0 0 0 0 0 1 62 120 270 107 27 2 3 0 0 0
0 0 0 0 0 0 0 0 0 0 0 0 0 0 0 0 0 0 0 0 0 0 5 4 0 0 0 0 0 0 0 0 0 0 0 57 128 217 81 36 1 0 0 0 0
0 0 0 0 0 0 0 0 0 0 0 0 0 0 0 0 0 0 0 0 0 0 0 0 8 0 0 0 0 0 0 0 0 0 0 26 114 146 74 19 25 2 0 0 0
0 0 0 0 0 0 0 0 0 0 0 0 0 0 0 0 2 0 0 0 0 0 0 0 1 0 0 0 0 0 0 0 0 0 3 13 87 13 45 169 149 3 2 5 0
0 0 0 0 0 0 0 0 0 0 0 0 0 0 0 0 0 0 0 0 0 0 0 0 0 0 0 0 0 0 0 0 4 28 7 33 81 3 72 42 76 17 6 0 0
0 0 0 0 0 0 0 0 0 0 0 0 0 0 0 0 0 0 0 0 0 0 0 0 0 0 0 0 0 0 0 0 0 0 13 63 177 0 163 145 97 12 0 0 0
0 0 0 0 0 0 0 0 0 0 0 0 0 0 0 0 0 0 0 0 0 0 0 0 0 0 0 0 0 0 0 0 0 9 62 50 42 61 53 97 6 0 0 0 0
0 0 0 0 0 0 0 0 0 0 0 0 0 0 0 0 0 0 0 0 0 0 0 0 0 0 0 0 0 0 0 0 0 4 0 0 0 30 3 2 0 0 0 0 0
0 0 0 0 0 0 0 0 0 0 0 0 0 0 0 0 0 0 0 0 0 0 0 0 5 0 0 0 0 0 0 0 0 0 0 0 5 0 0 0 0 0 0 0 0
0 0 0 0 0 0 0 0 0 0 0 0 0 0 0 0 0 0 0 0 1 15 16 10 6 0 0 0 0 3 17 0 0 0 0 15 3 0 0 0 0 0 0 0 0
CIN
0 0 0 0 0 0 0 0 0 0 0 0 0 0 0 0 0 0 0 0 0 0 0 0 0 0 0 0 0 0 0 0 0 0 0 -202 -154 -303 -330 -259 -248 -251 -169 -120 -124
0 0 0 0 0 0 0 0 0 0 0 0 0 0 0 0 0 0 0 0 0 0 0 0 0 0 0 0 0 0 0 0 0 0 -366 -360 -300 -325 -238 -227 -217 -179 -134 -118 -85
0 0 0 0 0 0 0 0 0 0 0 0 0 0 0 0 0 0 0 0 0 0 0 0 0 0 0 0 0 0 0 0 -291 0 -321 -366 -370 -335 -253 -272 -206 -126 -134 -118 -127
0 0 0 0 0 0 0 0 0 0 0 0 0 0 0 0 0 0 0 -753 -951 0 0 0 0 0 0 0 0 0 -443 -451 -518 -527 -423 -459 -354 -342 -259 -233 -195 -212 -232 -244 -234
0 0 0 0 0 0 0 0 0 0 0 0 0 0 0 0 0 0 0 0 0 0 0 0 0 0 0 0 0 0 -405 -442 -440 -449 -446 -423 -376 -341 -279 -264 -239 -262 -268 -287 -325
0 0 0 0 0 0 0 0 0 0 0 0 0 0 0 0 0 0 0 0 0 0 0 0 0 0 0 0 0 -361 -355 -361 -351 -391 -370 -402 -368 -358 -302 -287 -263 -271 -303 -339 -373
0 0 0 0 0 0 0 0 0 0 0 0 0 0 0 0 0 0 0 0 0 0 0 0 0 0 0 0 -377 -333 -282 -308 -288 -384 -249 -250 -268 -266 -308 -336 -279 -268 -278 -347 -330
0 0 0 0 0 0 0 0 0 0 0 0 0 0 0 0 0 0 0 0 0 0 0 0 0 0 0 0 0 0 0 -133 -234 -195 -251 -208 -189 -260 -280 -238 -190 -179 -161 -236 -69
0 0 0 0 0 0 0 0 0 0 0 0 0 0 0 0 0 0 0 0 0 0 0 0 0 0 0 0 0 -163 -85 -159 -201 -186 -180 -150 -193 -296 -324 -257 -222 -211 -173 -173 -176
0 0 0 0 0 0 0 0 0 0 0 0 0 0 0 0 0 0 0 0 0 0 0 0 0 0 0 0 0 -20 -151 -238 -200 -209 -218 -238 -195 -297 -332 -221 -302 -253 -56 -48 -9
0 0 0 0 0 0 0 0 0 0 0 0 0 0 0 0 0 0 0 0 0 0 0 0 0 0 0 0 0 -165 -157 -237 -217 -216 -205 -205 -182 -189 0 0 0 0 -2 0 0
0 0 0 0 0 0 0 0 0 0 0 0 0 0 0 0 0 0 0 0 0 0 0 0 0 0 0 -185 -140 -120 -146 -210 -192 -198 -182 -184 -189 -177 -172 0 0 -1 0 0 -39
0 0 0 0 0 0 0 0 0 0 0 0 0 0 0 0 0 0 0 0 0 0 0 0 0 0 0 0 0 -70 -91 -261 -184 -211 -136 -115 -139 -98 -42 -1 0 -1 0 -7 -27
0 0 0 0 0 0 0 0 0 0 0 0 0 0 0 0 0 0 0 0 0 0 0 0 0 0 0 0 0 0 0 -202 -237 -134 -84 -145 -43 -88 -41 -1 0 0 -6 -99 -70
0 0 0 0 0 0 0 0 0 0 0 0 0 0 0 0 0 0 0 0 0 0 0 0 0 0 0 0 0 0 -191 -136 -129 0 -104 -103 -33 -67 -53 -65 -58 -85 -80 -16 0
0 0 0 0 0 0 0 0 0 0 0 0 0 0 0 0 0 0 0 0 0 0 0 0 0 0 0 0 0 -222 -125 0 -144 0 -20 -81 -38 -21 -54 -19 -6 -33 -47 -16 0
0 0 0 0 0 0 0 0 0 0 0 0 0 0 0 0 0 0 0 0 0 0 0 0 0 0 0 0 0 0 0 0 0 0 0 -98 -38 -30 -29 -6 -3 -1 -38 0 0
0 0 0 0 0 0 0 0 0 0 0 0 0 0 0 0 0 0 0 0 0 0 0 -6 0 0 0 0 0 0 0 0 0 0 -1 -90 -4 -2 -57 -91 -35 -4 0 0 0
0 0 0 0 0 0 0 0 0 0 0 0 0 0 0 0 0 0 0 0 0 0 -34 -49 0 0 0 0 0 0 0 0 0 0 0 -36 -56 -32 -51 -49 -22 0 0 0 0
0 0 0 0 0 0 0 0 0 0 0 0 0 0 0 0 0 0 0 0 0 0 0 0 -16 0 0 0 0 0 0 0 0 0 0 -13 -17 -16 -17 -62 -21 -7 0 0 0
0 0 0 0 0 0 0 0 0 0 0 0 0 0 0 0 -68 0 0 0 0 0 0 0 -6 0 0 0 0 0 0 0 0 0 0 0 -3 -32 -15 -1 0 -15 -43 -57 0
0 0 0 0 0 0 0 0 0 0 0 0 0 0 0 0 0 0 0 0 0 0 0 0 0 0 0 0 0 0 0 0 0 -3 -33 -21 0 -33 0 -6 -3 -16 -68 -3 0
0 0 0 0 0 0 0 0 0 0 0 0 0 0 0 0 0 0 0 0 0 0 0 0 0 0 0 0 0 0 0 0 0 0 -21 -4 0 0 0 -3 -22 -44 0 0 0
0 0 0 0 0 0 0 0 0 0 0 0 0 0 0 0 0 0 0 0 0 0 0 0 0 0 0 0 0 0 0 0 0 -9 -15 -6 0 -7 -1 -8 -27 0 0 0 0
0 0 0 0 0 0 0 0 0 0 0 0 0 0 0 0 0 0 0 0 0 0 0 0 0 0 0 0 0 0 0 0 0 -21 0 -1 0 -6 -4 -29 0 0 0 0 0
0 0 0 0 0 0 0 0 0 0 0 0 0 0 0 0 0 0 0 0 0 -1 0 0 -19 0 0 0 0 0 0 0 0 0 0 0 0 0 0 0 0 0 0 0 0
0 0 0 0 0 0 0 0 0 0 0 0 0 0 0 0 0 0 0 0 -77 -49 -80 -76 -63 0 0 0 0 0 -21 -2 0 0 0 0 -4 0 0 0 0 0 0 0 0
Wind_Speed
8 8 9 8 8 9 9 8 8 9 10 11 11 11 11 11 12 2 3 2 4 3 8 3 2 3 2 3 1 3 2 1 1 2 5 8 6 8 9 11 10 6 7 14 14
8 9 9 8 8 9 9 8 8 9 10 11 11 11 10 10 3 2 5 5 7 7 3 1 0 3 4 2 1 1 3 5 5 4 10 14 10 5 7 9 12 16 17 17 13
9 10 10 10 10 9 9 9 8 9 10 10 11 11 10 7 3 1 4 9 4 5 2 2 2 1 3 1 3 3 8 7 12 1 12 11 22 7 4 14 9 12 14 15 15
9 10 10 10 10 10 10 10 10 9 9 10 11 12 12 3 3 2 6 4 6 4 2 1 2 2 2 3 3 8 17 12 12 8 5 10 12 21 20 10 12 14 13 15 15
9 9 10 9 10 9 9 10 10 8 8 9 10 11 2 2 3 1 4 6 5 3 1 2 4 2 2 5 5 13 11 18 20 25 25 26 23 15 16 14 14 16 16 17 15
9 9 10 9 9 9 8 9 8 7 7 8 9 10 2 1 3 1 5 4 3 3 0 1 1 1 3 5 7 16 20 20 21 21 16 23 18 6 10 11 14 16 17 15 15
10 9 9 10 9 9 9 8 6 6 7 7 6 3 0 5 4 1 6 3 4 3 2 2 3 2 2 11 20 19 22 15 13 3 15 14 19 11 10 12 13 14 14 13 13
11 11 10 10 9 8 8 6 5 5 5 6 3 1 6 2 0 7 5 4 3 3 2 0 4 2 3 11 10 5 3 5 18 2 5 5 7 8 8 11 13 12 12 13 11
12 12 11 10 9 7 7 4 3 2 0 1 1 2 3 6 2 0 4 1 4 4 2 4 1 3 3 7 6 6 6 7 6 10 4 3 10 9 9 12 12 10 10 10 10
13 12 11 9 6 6 7 3 6 3 2 3 3 3 2 5 4 3 2 1 1 2 3 3 4 3 4 4 4 5 8 10 9 13 20 19 14 11 9 11 11 10 9 9 11
13 11 11 9 6 4 2 3 0 2 2 3 4 4 5 7 3 1 2 3 2 5 3 4 4 8 7 9 11 14 13 15 10 3 11 12 11 9 8 11 10 8 7 7 9
13 11 10 9 6 2 3 3 3 2 5 3 5 6 5 3 3 2 3 1 3 4 1 6 8 3 11 14 17 16 17 8 9 8 8 10 9 6 6 7 7 8 6 6 7
16 12 9 8 2 3 1 2 3 1 1 4 3 3 1 4 1 3 1 2 7 12 10 10 4 3 10 10 11 4 5 10 8 12 12 13 5 7 5 6 6 5 6 6 6
18 15 10 8 1 0 1 4 4 6 2 3 1 1 3 2 2 2 1 1 3 9 8 9 2 4 5 4 1 3 1 15 19 8 5 9 2 8 8 7 5 4 5 5 5
18 15 10 4 2 2 4 7 5 2 3 2 1 1 1 3 2 6 4 5 4 4 5 4 2 4 7 4 1 5 10 14 14 3 7 9 5 3 7 10 10 7 6 5 6
18 13 7 1 0 2 7 1 1 1 4 2 3 2 3 4 4 3 5 9 2 8 10 5 1 4 4 5 8 15 8 4 6 3 4 4 5 7 7 12 8 6 5 4 5
18 10 1 2 2 8 5 1 0 3 2 5 3 3 5 5 5 5 6 9 4 3 5 4 6 3 5 2 5 6 1 4 5 4 5 1 7 5 10 2 2 7 5 4 5
19 2 1 2 6 4 2 2 4 1 2 2 1 5 5 8 5 6 4 5 8 3 3 2 3 6 9 4 3 5 3 4 6 5 5 2 3 7 10 10 10 6 5 3 2
11 1 2 8 5 1 3 3 1 1 3 3 2 6 5 4 2 4 7 4 7 4 1 3 5 2 7 8 4 2 4 3 3 2 4 2 0 10 7 6 6 6 5 1 6
2 2 3 11 4 3 3 2 1 2 4 1 4 2 4 6 3 4 7 5 4 10 2 2 5 3 3 3 10 6 3 3 1 5 9 1 2 6 11 1 4 4 4 7 4
3 3 2 8 1 5 3 2 3 3 1 5 3 4 4 3 5 4 6 3 6 5 6 2 3 3 1 6 7 6 4 4 1 4 4 5 5 4 7 3 3 4 5 2 2
2 3 5 4 4 2 2 1 4 5 8 7 5 6 4 6 4 4 3 3 8 3 4 4 3 3 3 1 6 8 5 4 4 3 3 2 4 4 3 5 4 4 6 8 6
3 2 2 2 3 2 2 2 5 3 7 4 4 5 4 3 3 2 2 4 8 5 2 2 4 2 4 5 3 6 7 3 2 2 5 5 4 4 3 3 6 6 8 6 6
2 2 4 6 2 2 3 3 4 5 5 5 3 2 3 3 5 3 3 5 4 4 7 5 4 4 3 3 2 3 9 7 4 4 3 4 3 3 2 4 5 6 6 7 7
5 2 1 3 5 3 1 3 3 5 4 8 4 5 2 2 2 3 2 2 4 5 5 4 4 4 6 6 7 5 6 10 10 5 4 3 4 3 5 4 6 6 6 5 6
3 1 1 2 2 1 6 4 3 3 5 4 6 5 4 5 4 1 0 1 2 4 4 3 4 2 3 5 5 6 4 4 5 2 1 2 3 4 6 7 6 6 5 5 7
2 1 3 3 3 1 2 2 2 4 6 6 5 4 9 5 3 3 2 4 3 2 3 3 5 2 3 4 4 2 4 3 2 2 3 6 4 7 5 5 5 5 5 6 7
Wind_Direction
312 310 307 309 299 288 285 290 303 305 307 303 311 315 317 327 307 220 252 222 175 162 175 134 130 66 93 99 118 172 227 32 358 16 79 18 114 59 66 71 46 38 63 103 111
317 312 307 303 298 288 295 301 300 299 299 304 316 312 323 334 299 279 257 242 224 162 174 107 57 110 99 104 170 318 5 29 9 9 89 67 67 56 80 80 60 77 88 94 100
325 320 312 306 300 302 300 295 296 296 306 313 316 315 321 320 269 64 3 198 176 196 101 100 107 132 105 175 67 66 6 322 8 37 112 91 57 36 112 52 75 96 92 88 75
324 316 308 304 302 298 292 295 294 304 316 318 317 318 316 250 85 258 0 148 174 199 143 127 38 75 83 63 64 108 43 50 16 55 80 78 87 64 61 85 81 82 84 79 69
321 325 307 306 297 289 294 296 298 308 320 317 314 321 303 327 258 313 124 143 153 180 226 85 52 98 49 65 106 102 93 77 76 80 87 86 70 71 67 73 81 77 72 66 63
331 320 317 316 305 307 300 289 291 315 310 300 304 314 346 340 129 179 177 166 185 194 241 178 97 177 100 58 54 113 91 95 84 79 85 82 64 69 56 89 82 76 68 67 69
331 317 332 321 327 306 285 284 308 304 287 285 305 337 358 241 142 215 208 223 184 193 289 230 159 229 108 107 124 121 99 89 27 35 125 76 58 70 73 69 69 72 72 71 77
329 337 333 336 317 298 292 301 293 281 284 287 282 241 259 229 226 270 188 241 202 245 243 357 179 96 33 124 127 173 120 92 26 91 42 108 98 72 72 76 63 79 80 80 78
337 338 333 332 305 315 295 285 280 263 289 42 207 259 288 312 268 142 199 247 169 145 142 130 96 64 130 137 132 36 95 57 57 21 99 123 119 105 94 93 77 71 68 78 80
342 334 325 307 314 309 304 201 102 140 115 201 249 245 232 326 301 321 117 112 8 350 86 39 47 74 91 213 110 125 115 62 81 66 88 91 110 114 121 114 105 92 79 74 62
341 328 314 313 321 298 169 155 333 103 148 253 299 272 295 301 270 121 134 116 81 60 99 37 124 84 77 84 103 102 108 114 112 89 77 111 120 128 117 108 98 97 91 66 63
339 330 325 320 303 235 232 71 113 43 315 216 260 273 273 275 306 79 170 89 49 93 113 114 76 27 102 108 107 116 118 110 96 88 110 129 110 124 127 109 121 124 106 93 70
340 336 332 325 119 175 47 76 92 50 259 303 224 251 277 182 333 8 190 113 77 80 73 81 78 125 111 122 120 157 136 170 136 112 125 138 139 172 129 124 104 88 110 88 75
338 334 333 320 144 346 63 342 308 192 43 339 304 83 141 247 56 346 231 89 72 94 79 74 65 81 100 99 265 114 24 148 147 167 171 211 174 220 192 193 162 173 152 126 95
338 331 327 319 133 83 346 333 132 228 84 328 319 38 49 52 320 43 358 44 103 112 160 99 71 62 58 13 226 57 142 151 159 142 157 198 253 133 197 225 211 190 185 112 81
336 332 316 144 127 18 326 300 218 266 63 41 323 16 103 25 25 351 38 52 94 66 73 84 23 31 354 59 65 134 121 99 195 203 252 167 255 181 192 236 212 177 122 110 86
337 338 151 292 13 328 320 57 5 53 328 8 355 1 85 11 59 39 56 49 48 127 117 71 30 3 17 37 114 191 163 303 267 261 344 157 217 30 194 22 180 154 124 109 101
334 318 194 32 322 316 40 66 71 5 5 28 36 70 70 7 46 26 95 87 43 45 124 165 170 13 347 20 341 40 345 335 314 317 344 180 278 59 76 82 77 98 106 130 124
318 50 49 350 337 353 80 69 100 1 319 341 77 54 47 28 71 67 32 48 27 360 75 147 128 148 35 36 314 68 25 2 296 109 259 26 194 97 77 75 97 111 120 162 237
65 47 43 334 341 59 77 102 2 268 330 83 84 18 55 10 69 57 23 15 0 31 292 82 133 25 30 347 47 43 62 285 4 296 309 159 350 18 357 201 157 149 206 221 229
53 61 5 348 45 49 80 60 320 3 34 39 80 80 66 39 45 55 14 28 2 341 63 36 8 80 84 33 17 32 39 40 48 328 311 315 75 7 350 34 166 197 209 218 59
63 63 2 331 54 41 74 324 336 351 24 60 79 63 51 36 63 87 74 348 339 287 49 26 67 69 92 46 54 60 34 14 324 71 54 319 87 2 20 67 105 95 80 74 82
57 317 354 318 83 47 342 87 45 44 29 52 70 41 52 64 104 84 93 18 16 47 69 149 38 338 149 198 80 43 17 33 83 238 43 340 62 47 106 103 47 92 94 91 74
57 54 6 52 35 60 13 29 101 50 68 59 84 145 113 72 43 111 106 30 20 74 57 89 66 29 10 14 351 48 27 29 24 36 54 44 352 75 63 15 85 93 94 87 64
16 74 9 21 44 61 36 351 51 43 53 31 62 36 60 100 83 87 90 104 44 13 53 66 94 92 75 81 89 82 50 46 59 48 30 18 339 46 22 50 101 99 89 70 42
37 17 61 66 308 357 7 24 74 102 12 35 93 62 69 74 28 88 131 32 50 51 62 31 112 113 88 93 86 74 45 50 57 56 116 283 315 81 106 109 106 97 84 39 29
35 124 293 359 15 355 29 37 61 135 56 64 113 87 61 42 353 357 29 75 68 70 90 53 138 177 106 149 312 226 11 6 318 260 315 327 31 158 148 130 132 108 59 39 23